Location: *
(38.9193°S, 102.9561°E)
Time: 19:56:42
(UTC+00:00)

Daily predictions for brighter satellites

Satellite Brightness Start Highest point End
(mag) Time Altitude Azimuth Time Altitude Azimuth Time Altitude Azimuth
FALCON 9 DEB 3.6 12:01:31 10° NNW 12:04:14 32° NE 12:05:19 24° E
Cosmos 540 Rocket 3.5 12:00:39 10° N 12:05:40 58° ENE 12:10:45 10° SSE
FALCON 9 DEB 3.9 12:03:28 10° N 12:06:00 24° NE 12:06:24 24° ENE
FALCON 9 DEB 4.0 12:05:23 10° N 12:07:53 24° NE 12:08:01 23° NE
Cosmos 1300 Rocket 3.8 12:04:46 10° S 12:09:10 48° E 12:13:29 10° NNE
RESURS DK-1 2.3 12:06:43 10° NNW 12:10:51 78° ENE 12:15:03 10° SSE
H-2A R/B 2.9 12:07:15 10° SSE 12:11:04 38° E 12:14:57 10° NNE
Milstar 3 Cent rocket 4.4 12:05:11 10° WNW 12:11:45 36° N 12:22:36 13° NE
CZ-4B R/B 4.2 12:09:55 10° NNW 12:12:36 22° W 12:15:20 10° SW
Cosmos 1470 4.2 12:10:24 10° SSE 12:13:02 19° ESE 12:13:02 19° ESE
Okean O Rocket 1.6 12:09:33 10° SSE 12:14:06 79° ENE 12:18:35 10° N
H-2A R/B 1.9 12:09:24 10° SSE 12:14:27 84° ENE 12:19:23 10° NNW
GPS 2-04 Rocket1 4.4 12:22:00 10° WNW 12:24:35 19° NNW 12:26:04 15° N
SAR-Lupe-4 3.8 12:23:10 29° NE 12:24:42 50° ESE 12:28:17 10° S
Cosmos 2181 Rocket 4.0 12:19:17 10° N 12:25:39 68° E 12:32:07 10° SSE
BREEZE-M DEB (TANK) 3.1 12:23:13 10° WNW 12:25:59 42° SSW 12:27:15 22° SSE
Cosmos 1766 3.2 12:23:26 10° S 12:27:31 89° E 12:31:32 10° N
SL-8 Rocket 3.9 12:21:48 10° S 12:28:00 66° E 12:34:11 10° NNE
Cosmos 990 Rocket 4.3 12:24:14 10° SSW 12:29:25 68° WNW 12:34:32 10° N
YAOGAN 1 2.8 12:25:58 10° SSE 12:30:14 46° E 12:34:25 10° N
SL-08 RB Rocket 3.7 12:28:43 10° SSE 12:33:18 56° E 12:37:47 10° N
Cosmos 1689 Rocket 2.7 12:32:36 18° N 12:34:28 50° W 12:37:14 10° SSW
USA 281 4.0 12:32:06 10° N 12:38:26 51° WNW 12:44:52 10° SSW
CZ-2C R/B 1.5 12:37:07 10° WNW 12:39:50 36° N 12:39:50 36° N
Cosmos 372 Rocket 4.3 12:35:09 10° S 12:40:18 47° ESE 12:41:43 38° ENE
Spot 2 4.4 12:35:47 10° SSE 12:40:57 89° WSW 12:45:48 10° NNW
SAR-Lupe-1 4.1 12:40:08 26° N 12:42:02 78° WNW 12:45:42 10° SSW
Okean 2 Rocket 3.0 12:39:58 10° S 12:44:33 81° E 12:46:54 28° NNE
Feng Yun 1-1 Rocket 4.2 12:40:21 10° SSE 12:46:10 79° ENE 12:51:44 10° N
Meteor 2-10 4.2 12:41:18 10° S 12:47:00 88° W 12:52:31 11° N
Cosmos 1898 Rocket 3.9 12:42:32 10° SSW 12:47:44 62° WNW 12:52:21 13° N
FALCON 9 DEB 3.3 12:45:07 10° WNW 12:47:51 59° WSW 12:47:51 59° WSW
Okean 1 Rocket 4.1 12:46:07 10° S 12:49:12 30° SE 12:49:12 30° SE
NOAA 15 4.5 12:45:46 10° SSE 12:51:06 71° ENE 12:56:21 10° N
Sich 1 Rocket 4.2 12:46:35 10° SSW 12:51:09 60° W 12:55:40 10° N
ARGOS 3.4 12:48:28 10° S 12:53:55 72° WSW 12:59:17 10° NNW
Cosmos 1726 2.1 12:51:52 10° S 12:55:20 71° SSE 12:55:20 71° SSE
Lacrosse 5 3.5 12:54:14 10° WNW 12:58:52 33° SW 13:03:32 10° SSE
ERS-2 3.0 13:00:04 39° S 13:00:04 39° S 13:02:36 10° S
Cosmos 1707 4.4 13:02:08 25° SSE 13:02:08 25° SSE 13:03:52 10° SSE
Cosmos 1980 Rocket 3.9 12:57:32 10° S 13:00:38 18° SE 13:00:38 18° SE
In-Cosmos 22 4.2 13:02:14 55° ENE 13:02:24 55° E 13:07:56 10° SSE
CZ-4 R/B 1.7 12:58:21 10° S 13:02:28 67° WSW 13:06:27 10° NNW
Cosmos 1378 Rocket 3.5 13:04:06 49° N 13:05:18 89° W 13:09:50 10° S
Cosmos 1833 Rocket 2.5 13:00:50 10° NNW 13:06:27 72° ENE 13:12:08 10° SSE
Uosat 12 SS-18 rocket 4.3 13:02:17 10° SSW 13:07:22 63° SE 13:07:22 63° SE
Cosmos 2366 rocket 4.2 13:03:33 10° SSW 13:09:54 72° W 13:15:14 15° N
EXPRESS MD2 4.1 13:08:42 10° SW 13:13:56 48° S 13:13:56 48° S
Okean-O 3.5 13:10:11 10° SSE 13:13:02 39° SSE 13:13:02 39° SSE
Cosmos 1570 Rocket 4.2 13:09:51 10° NNW 13:15:05 71° WSW 13:20:22 10° SSE
Cosmos 2218 Rocket 4.4 13:10:11 10° SSW 13:16:23 62° W 13:21:48 13° N
Cosmos 2151 Rocket 4.3 13:13:23 10° SSW 13:17:51 53° W 13:19:08 39° NW
USA 234 3.3 13:16:51 46° NNE 13:18:58 73° NW 13:25:36 10° SW
CSL-04 Debris 4.5 13:13:57 10° SSE 13:18:17 52° SE 13:18:17 52° SE
Nadezhda 3 Rocket 3.9 13:20:11 65° ENE 13:20:32 67° E 13:26:53 10° SSE
ATLAS 3B R/B 2.5 13:13:49 10° SSW 13:20:45 87° ESE 13:22:04 61° NE
Tiangong 3.7 13:19:25 10° W 13:20:37 21° W 13:20:37 21° W
CZ-2C R/B 4.1 13:23:53 62° S 13:23:53 62° S 13:27:54 10° SSW
Cosmos 1674 Rocket 4.4 13:20:19 19° NNW 13:23:08 48° W 13:27:26 10° S
Cosmos 1656 3.7 13:17:58 10° SSW 13:23:44 80° WNW 13:24:26 68° N
Cosmos 1697 Rocket 3.1 13:26:17 10° SSW 13:30:54 51° SSE 13:30:54 51° SSE
COSMOS 2406 3.2 13:27:40 10° NNW 13:33:23 82° WSW 13:39:08 10° SSE
X-37B 3.7 13:32:10 10° SW 13:32:56 15° SW 13:32:56 15° SW
Cosmos 1821 Rocket 4.5 14:00:23 10° SSW 14:06:04 55° W 14:06:04 55° W
ATLAS 5 CENTAUR R/B 4.0 14:05:34 10° SSW 14:07:59 22° S 14:07:59 22° S
BREEZE-M TANK 4.4 14:04:17 10° WNW 14:09:06 37° W 14:09:06 37° W
Cosmos 1980 Rocket 4.2 14:40:19 10° SSW 14:42:25 23° SSW 14:42:25 23° SSW
ATLAS 2AS CENTAUR R/B 4.3 19:12:45 10° SSW 19:18:46 31° SE 19:25:07 10° ENE
Cosmos 2263 Rocket 3.9 19:32:06 29° SE 19:32:06 29° SE 19:34:47 10° SSE
SL-16 R/B 3.0 19:46:04 10° SSE 19:51:04 57° SE 19:51:04 57° SE
Cosmos 1943 4.2 19:56:57 10° SSW 20:06:35 19° NE 20:08:09 10° NE
Cosmos 1092 Rocket 4.5 20:13:34 50° SSW 20:13:34 50° SSW 20:18:18 10° S
Cosmos 1140 Rocket 4.3 20:12:45 49° E 20:12:45 49° E 20:17:31 10° SSE
Cosmos 2292 Rocket 4.5 20:13:50 66° ESE 20:13:50 66° ESE 20:19:54 10° S
Cosmos 1844 Rocket 4.1 20:14:29 26° NE 20:16:15 32° ENE 20:21:11 10° SE
Cosmos 407 Rocket 3.8 20:23:45 68° E 20:23:45 68° E 20:28:55 10° SSE
SL-4 R/B 4.3 20:29:38 20° SSW 20:31:20 25° SSE 20:35:20 10° ESE
Meteor 2-14 Rocket 4.3 20:33:25 71° NNW 20:34:10 85° W 20:40:26 10° S
Cosmos 1190 Rocket 4.4 20:33:38 54° NE 20:34:25 61° ENE 20:39:39 10° SSE
ADEOS Rocket 4.0 20:30:12 10° S 20:33:37 30° SW 20:33:37 30° SW
Cosmos 1023 Rocket 4.4 20:37:54 88° SSE 20:37:54 88° SSE 20:43:12 10° SSE
Hubble Space Telescope 3.3 20:40:17 13° NE 20:40:17 13° NE 20:40:55 10° NE
ALOS 4.4 20:47:23 15° SSW 20:47:23 15° SSW 20:48:16 10° SSW
Cosmos 1809 Rocket 4.5 20:44:37 59° W 20:44:41 59° W 20:50:52 10° S
Meteor 2-21 4.4 20:44:48 61° NW 20:45:42 69° W 20:51:58 10° S
Cosmos 967 Rocket 4.4 20:46:07 59° NW 20:47:20 77° WSW 20:53:46 10° SSE
OAO 2 Rocket 4.1 20:48:37 38° NNE 20:48:37 38° NNE 20:53:08 10° E
Meteor 1-20 Rocket 4.3 20:51:11 25° N 20:54:32 73° E 21:00:10 10° SSE
Meteor 2-16 Rocket 4.3 20:53:17 27° N 20:56:51 89° W 21:03:02 10° S
Meteor 2-21 Rocket 4.4 20:59:04 36° NNW 21:01:40 69° W 21:07:57 10° S
Sich 1 3.1 21:02:11 38° N 21:03:50 80° E 21:08:17 10° S
DELTA 2 DEB (DPAF) 4.0 21:01:49 10° S 21:06:22 78° WSW 21:07:28 51° NNW
USA 305 2.9 21:06:17 63° WSW 21:06:33 64° SW 21:10:53 10° SE
Cosmos 1844 3.8 21:04:36 24° NNW 21:08:11 75° ENE 21:13:51 10° SSE
Cosmos 1805 Rocket 3.5 21:08:51 56° NW 21:09:35 67° W 21:14:06 10° S
ATLAS 2AS CENTAUR R/B 2.8 21:03:08 10° SW 21:10:05 62° WNW 21:17:27 10° NNE
Cosmos 1633 Rocket 4.4 21:06:51 10° NNE 21:10:59 41° E 21:15:09 10° SSE
ISS -1.5 21:10:07 16° NNE 21:11:21 19° NE 21:13:55 10° E
Cosmos 1340 Rocket 3.9 21:09:31 10° NNE 21:13:16 44° E 21:17:03 10° SSE
Cosmos 1553 Rocket 4.0 21:07:35 10° SSW 21:13:35 56° W 21:19:30 10° NNW
Cosmos 2263 Rocket 3.8 21:13:47 18° SW 21:13:47 18° SW 21:17:27 10° S
Meteor 1-27 Rocket 3.8 21:10:17 10° SSW 21:15:43 50° W 21:21:12 10° NNW
USA 307 3.1 21:19:27 46° W 21:20:19 56° SW 21:24:36 10° SE
Envisat 3.3 21:16:00 10° NNE 21:21:04 68° ESE 21:26:12 10° S
MOS 1 Rocket 4.4 21:18:24 10° SSE 21:23:40 51° E 21:28:39 10° N
Cosmos 1666 4.0 21:24:39 10° NNE 21:28:19 42° E 21:32:03 10° SSE
CZ-4C R/B 3.4 21:25:13 10° S 21:29:37 74° WSW 21:32:48 17° NNW
H-2A R/B 2.7 21:26:47 10° NNE 21:30:37 83° ESE 21:34:29 10° S
Cosmos 676 Rocket 4.0 21:28:43 19° NNW 21:32:27 67° WSW 21:37:48 10° SSE
USA 306 3.6 21:33:04 31° WSW 21:34:28 40° SW 21:38:35 10° SE
ADEOS 3.7 21:29:56 10° NNE 21:35:10 82° ESE 21:40:30 10° SSW
SL-16 R/B 3.9 21:31:11 10° SSW 21:35:14 18° WSW 21:36:11 18° WSW
USA 308 3.6 21:37:59 28° W 21:39:39 40° SW 21:43:46 10° SE
Chandra Rocket (1) 4.2 21:41:27 15° NW 21:41:27 15° NW 21:43:50 10° N
Cosmos 1655 Rocket 4.2 21:36:59 10° NNW 21:43:04 50° W 21:49:20 10° S
Meteor 1-19 Rocket 4.1 21:37:37 10° SSW 21:43:25 77° W 21:48:58 10° N
Milstar 3 3.7 21:38:52 19° WNW 21:44:15 38° N 21:50:25 10° ENE
Cosmos 1515 4.4 21:47:28 10° SSW 21:50:54 31° W 21:54:18 10° NNW
Cosmos 2315 Rocket 4.0 21:52:16 10° SSW 21:58:37 71° W 22:04:56 10° N
Cosmos 1844 Rocket 3.4 21:56:11 16° WNW 22:00:02 34° WSW 22:05:09 10° S
Cosmos 2266 Rocket 4.4 21:54:28 10° NW 22:00:05 39° WSW 22:05:51 10° S
SL-08 R/B 3.4 21:55:45 10° S 22:00:35 62° WSW 22:05:17 10° NNW
Genesis I 3.3 21:58:21 14° NW 22:01:34 55° WSW 22:05:21 10° SSE
Cosmos 1470 Rocket 3.5 21:58:34 10° N 22:02:56 89° WSW 22:07:20 10° S
CZ-4B R/B 4.3 21:59:53 10° NNW 22:03:11 32° W 22:06:36 10° SSW
Cosmos 1933 Rocket 4.3 21:59:52 10° N 22:04:16 58° E 22:08:44 10° SSE
ERBS 2.4 22:02:54 16° WNW 22:05:23 57° SW 22:08:40 10° SE
Cosmos 1666 Rocket 4.2 22:02:18 10° NW 22:06:24 36° WSW 22:10:35 10° S
Meteor 1-31 Rocket 3.5 22:05:49 10° NNW 22:09:12 29° W 22:12:37 10° SW
SMAP 4.5 22:06:39 10° NE 22:11:05 44° ESE 22:15:35 10° S
SL-4 R/B 2.6 22:06:45 10° SW 22:11:41 77° SE 22:16:26 10° NE
RESURS DK-1 2.5 22:08:01 10° SSW 22:12:09 55° WNW 22:16:13 10° N
CZ-4B R/B 3.1 22:07:52 10° NNE 22:12:23 84° WNW 22:16:53 10° SSW
Cosmos 468 Rocket 4.0 22:07:23 10° SSW 22:12:46 81° WNW 22:18:06 10° NNE
USA 276 2.4 22:11:13 10° NW 22:14:24 66° NE 22:17:36 10° ESE
Cosmos 1536 4.5 22:11:07 10° NNE 22:14:53 40° E 22:18:44 10° SSE
Meteor PRIRODA 3.6 22:11:59 10° N 22:15:43 72° WNW 22:19:29 10° SSW
[s.n.49146] 4.5 22:15:24 10° S 22:18:07 36° ESE 22:20:48 10° NE
Hubble Space Telescope 3.0 22:16:26 10° NW 22:18:24 13° NNW 22:20:20 10° NNE
[s.n.49144] 4.5 22:15:43 10° S 22:18:26 36° ESE 22:21:07 10° NE
CZ-2C R/B 3.6 22:13:23 10° NNE 22:18:38 64° ESE 22:23:40 10° S
[s.n.49147] 4.4 22:16:02 10° S 22:18:45 37° ESE 22:21:27 10° NE
[s.n.49143] 4.4 22:16:21 10° S 22:19:04 37° ESE 22:21:46 10° NE
Lacrosse 4 Rocket 1.8 22:14:36 10° NNW 22:19:04 77° ENE 22:23:37 10° SSE
[s.n.49142] 4.4 22:16:40 10° S 22:19:24 37° ESE 22:22:06 10° NE
[s.n.49140] 4.4 22:16:59 10° S 22:19:44 38° ESE 22:22:26 10° NE
[s.n.49141] 4.3 22:17:19 10° S 22:20:03 38° ESE 22:22:46 10° NE
YAOGAN 6 3.8 22:17:33 10° NNW 22:20:19 22° W 22:23:09 10° SW
[s.n.49138] 4.3 22:17:38 10° S 22:20:22 39° ESE 22:23:05 10° NE
[s.n.49139] 4.3 22:17:57 10° S 22:20:41 39° ESE 22:23:25 10° NE
[s.n.49134] 4.2 22:18:15 10° S 22:21:01 40° ESE 22:23:44 10° NE
[s.n.49137] 4.2 22:18:35 10° S 22:21:21 40° ESE 22:24:05 10° NE
[s.n.49135] 4.2 22:18:54 10° S 22:21:40 41° ESE 22:24:25 10° NE
[s.n.49136] 4.2 22:19:14 10° S 22:22:00 41° ESE 22:24:45 10° NE
Cosmos 1378 3.5 22:18:17 10° S 22:22:03 71° E 22:25:47 10° NNE
[s.n.49133] 4.1 22:19:34 10° S 22:22:21 42° ESE 22:25:05 10° NE
[s.n.49131] 4.1 22:19:53 10° S 22:22:40 42° ESE 22:25:26 10° NE
[s.n.49132] 4.1 22:20:13 10° S 22:23:00 43° ESE 22:25:45 10° NE
Cosmos 540 Rocket 3.6 22:26:51 10° SSW 22:32:06 85° ESE 22:37:18 10° NNE
